Temperature
10 7 7 8 8 9 9 9 8 8 9 8 8 8 8 8 8 7 7 7 7 8 8 8 9 9 9 9 9 9 9 9 9 9 9 9 9 9 9 9 9 9 9 9
7 7 8 9 9 9 8 8 7 8 8 8 7 7 7 7 7 7 7 7 7 7 8 8 8 8 8 8 8 8 8 8 8 8 8 8 8 9 9 9 9 9 9 9
8 8 9 9 8 8 8 7 7 7 7 7 7 6 6 7 7 7 6 6 6 6 7 7 7 7 8 8 8 8 8 7 7 7 7 7 7 8 8 8 8 8 8 8
7 8 8 8 7 7 7 7 7 7 6 5 6 5 5 5 5 5 5 5 5 6 6 6 6 7 7 7 7 7 7 7 7 7 7 7 7 7 7 8 8 8 8 8
7 7 7 7 7 7 7 7 7 7 6 5 5 4 4 5 5 5 4 5 5 5 5 5 6 6 6 6 6 6 6 6 6 6 6 6 6 6 7 7 7 7 7 8
6 7 7 7 7 7 7 6 6 4 4 4 5 4 4 4 4 4 4 4 4 4 4 5 5 5 5 6 6 6 6 6 6 6 6 6 6 6 6 6 7 7 7 7
5 6 6 7 6 6 5 5 4 4 3 4 5 4 3 4 4 4 4 4 4 4 4 4 4 4 4 5 5 5 5 5 5 5 5 5 5 5 6 6 6 6 6 7
4 4 5 6 6 5 5 5 4 4 3 3 4 3 3 4 4 4 4 3 3 3 3 3 3 3 4 4 4 4 4 4 4 4 4 5 5 5 5 5 5 6 6 6
3 4 5 5 6 5 5 4 4 3 2 2 2 2 3 4 3 3 3 2 2 2 2 2 3 3 3 3 3 3 3 3 3 3 4 4 4 4 5 5 5 5 5 5
3 3 4 4 5 5 5 4 2 2 3 3 3 2 2 2 2 2 2 2 2 2 2 2 2 2 2 2 3 3 3 3 3 3 3 3 3 4 4 4 4 5 5 5
3 2 2 3 3 4 4 3 3 2 2 2 2 2 2 2 2 1 1 1 1 1 1 1 1 2 2 2 2 2 2 2 2 2 2 3 3 3 3 4 4 4 4 4
2 1 1 2 3 3 3 3 2 1 1 1 1 1 2 1 1 1 1 1 1 1 1 1 1 1 1 1 1 1 1 1 1 2 2 2 2 3 3 3 3 3 4 4
2 1 1 2 3 2 2 2 2 1 0 -0 0 1 1 0 1 1 0 0 0 0 -0 0 0 0 0 1 1 0 0 0 1 1 1 1 2 2 2 3 3 3 3 3
3 0 0 1 2 1 1 1 1 1 -0 -0 -0 -0 0 -0 -0 -0 -0 -0 -0 -0 -1 -1 -1 -1 -0 -0 -0 -0 -0 -0 -0 0 0 1 1 1 2 2 2 2 2 3
1 -0 -0 0 1 1 1 1 1 0 -0 -0 -1 -1 -0 -0 -1 -1 -1 -1 -1 -1 -1 -1 -2 -2 -1 -1 -1 -1 -1 -1 -1 -1 -0 -0 0 1 1 1 2 2 2 2
-1 -1 -1 -1 0 0 0 -0 -0 -0 -0 -1 -1 -1 -1 -1 -1 -1 -1 -2 -2 -2 -2 -2 -2 -2 -2 -2 -2 -2 -2 -2 -2 -1 -1 -1 -0 -0 0 1 1 1 1 1
-1 -2 -2 -2 -1 -1 -1 -1 -1 -1 -2 -2 -2 -2 -2 -2 -2 -2 -2 -2 -2 -2 -3 -3 -3 -3 -3 -3 -3 -3 -2 -2 -2 -2 -2 -2 -1 -1 -0 -0 -0 0 0 1
-2 -2 -2 -2 -2 -2 -2 -1 -1 -2 -2 -2 -2 -3 -2 -2 -2 -3 -3 -3 -3 -3 -3 -4 -4 -4 -4 -3 -3 -3 -3 -3 -3 -3 -3 -2 -2 -2 -1 -1 -1 -0 -0 -0
-2 -2 -3 -3 -3 -3 -2 -2 -2 -2 -3 -3 -3 -3 -3 -3 -3 -3 -3 -3 -4 -4 -4 -4 -4 -4 -4 -4 -4 -4 -4 -4 -3 -3 -3 -3 -3 -2 -2 -2 -1 -1 -1 -1
-3 -3 -3 -4 -3 -3 -2 -2 -1 -2 -4 -3 -3 -4 -4 -4 -5 -4 -4 -4 -5 -5 -5 -5 -5 -5 -5 -5 -5 -5 -4 -4 -4 -4 -4 -3 -3 -3 -2 -2 -2 -2 -2 -1
-3 -4 -4 -4 -4 -4 -3 -2 -2 -3 -3 -3 -3 -4 -4 -5 -5 -5 -5 -5 -5 -5 -5 -5 -5 -5 -5 -5 -5 -5 -5 -5 -4 -4 -4 -4 -3 -3 -3 -3 -2 -2 -2 -2
-4 -4 -5 -5 -5 -4 -3 -3 -3 -4 -3 -3 -4 -4 -5 -5 -5 -5 -5 -5 -6 -6 -6 -6 -6 -6 -5 -6 -5 -5 -5 -5 -5 -5 -4 -4 -4 -4 -3 -3 -3 -3 -3 -3
-4 -4 -4 -4 -4 -3 -3 -3 -3 -3 -4 -4 -4 -5 -5 -6 -6 -6 -6 -6 -6 -6 -6 -6 -6 -6 -6 -6 -6 -6 -5 -5 -5 -5 -5 -5 -4 -4 -4 -4 -4 -3 -3 -3
-5 -4 -5 -5 -5 -4 -3 -3 -4 -4 -4 -5 -5 -5 -6 -6 -6 -6 -6 -7 -7 -7 -7 -7 -7 -7 -6 -6 -6 -6 -6 -6 -6 -5 -5 -5 -5 -5 -4 -4 -4 -4 -4 -4
-5 -5 -5 -6 -5 -4 -4 -4 -4 -5 -5 -5 -6 -6 -6 -6 -7 -7 -7 -7 -7 -7 -7 -7 -7 -7 -7 -7 -6 -6 -6 -6 -6 -6 -6 -6 -5 -5 -5 -5 -5 -5 -5 -5
-5 -5 -6 -5 -5 -5 -5 -5 -5 -5 -6 -6 -6 -6 -7 -7 -7 -7 -7 -7 -8 -8 -8 -8 -8 -7 -7 -7 -7 -7 -7 -7 -7 -7 -6 -6 -6 -6 -6 -6 -5 -5 -5 -5
Wind_Speed
3 4 0 3 3 3 2 3 5 6 4 3 7 9 8 5 2 2 1 1 0 1 2 2 2 2 2 2 2 1 1 1 1 1 0 0 1 1 1 1 3 4 5 5
5 2 5 3 1 1 2 4 5 6 5 3 6 8 6 4 2 2 1 0 1 2 4 3 3 3 2 1 1 1 1 0 1 1 1 1 1 1 1 1 2 4 4 5
2 3 2 0 2 2 3 3 5 6 6 4 4 6 3 2 1 2 2 1 2 2 1 2 3 2 1 1 1 1 1 1 2 1 1 2 2 1 1 1 1 2 4 4
1 3 2 1 1 1 4 3 5 5 4 5 1 5 4 2 2 3 3 3 3 2 2 2 2 2 2 1 1 1 1 1 1 1 1 1 1 1 2 2 2 2 3 4
2 1 1 1 3 1 4 5 5 4 3 4 3 4 6 2 1 2 3 3 3 3 2 3 3 2 2 1 0 1 1 2 2 1 1 2 2 1 1 1 1 2 2 4
3 2 0 2 2 2 3 4 3 3 3 3 5 5 6 2 2 1 2 3 3 4 4 3 4 3 3 2 2 2 2 2 2 2 1 2 2 2 1 1 2 2 1 2
5 3 2 2 3 4 5 4 4 5 2 6 2 3 5 3 1 1 1 3 3 4 4 5 5 5 4 3 2 2 2 3 3 2 2 2 3 3 4 4 3 3 2 2
3 5 3 1 1 1 1 3 3 4 5 6 4 4 4 2 1 3 3 3 4 4 4 4 5 4 3 3 2 2 3 3 3 3 3 3 3 3 3 3 3 4 4 4
1 5 4 3 2 2 1 1 3 2 3 5 5 4 4 1 3 5 5 5 5 5 5 5 5 5 5 3 3 3 3 3 3 4 4 4 3 3 3 3 3 3 3 3
1 5 5 4 2 1 2 2 3 2 3 5 5 4 3 3 4 5 5 5 5 5 6 6 6 6 5 4 4 4 3 3 4 4 4 4 4 4 4 2 3 3 3 3
1 2 5 4 2 3 1 1 2 2 3 3 5 5 1 1 2 3 4 4 4 5 6 6 6 6 6 5 4 4 4 4 4 5 5 5 4 4 3 3 3 3 3 3
1 1 5 6 5 3 3 3 3 2 5 3 4 5 2 1 2 3 5 5 5 5 5 5 5 5 6 5 5 4 5 5 5 5 5 5 4 3 3 3 3 2 2 3
1 1 4 6 3 3 1 1 2 3 2 4 5 6 2 5 6 6 6 6 7 6 6 6 5 5 6 5 5 5 5 5 5 5 4 4 4 4 4 3 3 2 2 2
0 3 5 7 6 4 6 7 5 3 5 6 8 9 9 7 7 8 7 7 7 7 6 6 6 6 7 6 5 5 5 5 5 5 4 4 4 4 4 3 3 2 2 2
2 3 5 8 9 7 10 11 7 7 8 8 9 10 12 8 8 7 7 7 8 7 7 7 7 7 7 7 6 5 5 5 5 4 4 5 5 4 4 3 3 2 2 3
1 2 3 7 8 7 10 9 7 7 7 9 10 11 8 7 6 7 7 8 7 7 8 8 7 7 7 7 7 6 6 6 5 5 5 5 5 5 4 3 3 3 2 2
1 2 2 6 7 6 6 6 4 3 4 5 8 8 7 7 8 8 8 8 7 8 9 8 8 8 8 7 7 6 6 5 5 5 5 5 5 5 5 4 3 3 2 2
4 3 2 4 4 7 6 1 1 3 5 5 4 5 7 9 8 7 6 6 7 9 9 9 8 8 8 7 7 6 5 5 5 5 5 5 5 5 5 3 3 3 2 2
5 4 2 2 4 7 6 2 1 3 7 3 4 8 9 7 7 5 4 5 7 8 9 8 8 8 8 7 6 5 5 5 5 5 5 5 5 5 4 4 3 3 3 3
2 3 3 3 4 6 5 3 2 1 5 3 4 8 8 6 7 7 7 9 10 9 8 8 8 7 7 7 6 4 5 5 5 5 5 6 5 5 4 4 3 3 3 3
1 1 4 6 7 7 5 4 2 1 6 5 6 7 6 6 7 8 9 9 9 9 9 8 8 7 7 7 5 5 5 6 6 6 5 5 5 5 4 3 3 2 3 2
5 4 5 4 5 8 3 0 2 6 4 5 6 6 7 8 9 9 9 9 10 9 9 8 8 8 7 6 5 5 6 6 6 5 5 5 5 4 3 2 3 2 2 2
6 7 5 7 7 4 2 4 4 3 5 5 5 7 7 8 9 10 9 9 9 9 9 8 8 8 7 6 5 6 6 6 5 5 5 5 5 4 3 2 3 2 1 2
4 3 3 5 7 5 5 4 4 5 5 6 6 7 7 8 9 9 9 9 9 9 8 7 7 8 8 7 6 5 5 5 4 5 5 5 4 3 3 2 2 2 2 2
6 3 4 6 7 5 4 5 5 5 5 6 6 6 6 7 9 9 8 9 8 9 8 7 7 8 8 8 7 6 5 4 4 5 5 5 4 3 3 3 2 3 4 5
4 5 5 7 6 5 6 6 4 5 6 6 6 7 7 7 8 8 8 8 8 8 8 8 8 8 8 7 7 6 5 4 4 5 5 4 3 3 3 3 4 4 4 7
Wind_Direction
50 68 179 245 214 212 231 249 271 269 291 276 249 262 277 283 280 267 277 276 262 282 330 36 40 56 58 58 67 79 76 70 108 70 107 162 237 235 232 197 181 173 159 158
44 318 260 251 268 252 275 280 286 293 315 291 272 276 277 269 246 208 195 242 313 353 9 20 30 47 58 61 45 47 34 351 262 249 231 228 224 226 237 220 183 173 162 161
172 262 301 55 359 321 285 249 269 283 318 320 315 307 294 300 40 56 45 48 34 37 5 7 19 20 32 36 8 324 316 321 311 320 27 32 36 30 17 284 242 206 180 171
290 303 1 31 313 277 271 266 270 282 317 291 330 287 277 266 358 20 7 11 8 5 15 11 9 5 349 310 322 343 328 338 330 337 173 169 187 226 240 240 241 236 202 191
288 318 38 297 276 258 256 283 277 267 243 282 256 229 282 306 316 321 337 356 2 3 8 359 351 332 335 336 33 4 7 348 341 327 253 214 228 243 266 248 216 231 226 207
278 308 224 260 298 290 309 337 346 39 89 271 233 202 276 266 233 285 341 353 1 1 359 352 353 4 5 19 45 31 19 348 336 321 298 255 235 223 219 232 219 235 238 230
331 327 344 17 1 2 33 50 3 344 334 255 273 215 254 264 268 134 9 359 5 7 9 5 2 5 4 5 14 7 2 339 332 321 301 283 262 232 220 218 216 218 221 231
339 304 302 332 219 245 288 144 174 245 258 290 319 238 251 283 2 53 50 36 19 9 3 358 353 349 345 349 357 347 332 322 319 312 295 278 269 249 243 227 218 213 219 225
307 282 316 309 291 170 182 207 188 182 273 271 268 277 295 8 25 26 26 23 9 354 351 348 348 348 343 337 330 314 311 314 311 304 299 284 274 267 260 246 224 216 224 226
167 283 297 315 341 326 167 158 94 160 257 265 275 263 259 300 328 355 4 358 350 347 347 349 348 342 340 330 327 327 320 310 308 305 301 300 283 272 262 250 238 230 225 222
53 258 304 329 244 248 171 181 188 209 213 233 271 271 277 253 313 335 334 339 331 330 332 334 335 338 341 339 337 333 331 331 328 320 312 304 291 286 268 245 240 237 233 218
349 173 272 268 269 261 191 190 166 214 254 239 260 272 341 336 360 359 340 336 328 323 323 324 328 338 340 336 334 333 332 328 322 320 318 312 299 292 277 262 253 244 236 229
354 140 315 324 329 4 347 269 224 219 226 231 238 258 341 3 356 345 334 328 327 325 326 328 333 331 327 321 318 317 318 318 321 323 322 325 320 306 288 275 263 246 238 238
14 199 210 240 262 286 287 288 276 227 235 251 243 261 297 315 318 323 322 319 319 320 323 329 327 321 322 318 313 310 312 316 320 323 322 320 317 313 307 295 279 261 243 235
96 242 253 262 271 271 272 277 270 242 236 242 257 264 280 292 298 306 312 315 320 322 328 328 324 323 325 323 319 315 313 314 317 319 319 316 316 316 318 316 298 279 260 249
94 251 288 283 276 275 277 276 268 258 252 251 263 273 280 301 310 315 316 313 312 316 319 319 321 321 319 318 314 314 313 312 313 311 311 315 318 321 320 316 309 302 279 259
207 196 271 275 299 311 271 258 251 251 262 250 257 266 300 315 317 311 310 306 303 314 318 317 315 312 308 308 306 303 303 307 308 306 310 315 317 318 317 314 313 302 290 270
193 200 222 276 319 262 255 247 211 257 277 266 256 288 302 299 297 299 299 303 315 316 315 313 311 309 309 306 306 304 305 305 305 305 307 312 313 313 311 308 303 300 295 284
193 189 214 237 264 270 279 276 264 262 282 262 282 300 308 312 312 299 310 325 315 310 309 306 304 304 306 305 304 306 309 308 306 306 306 306 304 307 307 307 301 303 297 294
128 165 199 219 246 254 251 281 307 320 281 301 319 306 309 325 312 299 318 318 315 315 315 313 314 313 311 306 306 303 304 304 300 301 302 300 297 300 294 293 296 299 297 294
196 223 218 228 242 262 259 294 10 257 271 305 306 299 295 284 273 286 302 308 309 309 311 314 316 315 309 305 304 297 298 294 297 301 301 301 297 296 285 288 292 292 300 301
202 206 217 207 232 257 250 98 208 245 280 294 299 299 293 287 291 297 302 306 310 313 314 317 316 313 313 309 302 296 291 295 302 301 300 299 300 297 290 286 293 285 279 286
210 203 205 208 229 258 230 232 255 270 281 288 292 293 290 293 297 303 305 306 309 312 314 314 310 311 314 312 300 289 294 301 303 304 303 301 304 298 283 269 279 289 266 264
258 214 212 255 262 271 275 272 286 283 281 288 287 289 289 290 296 302 305 309 311 312 313 314 314 315 316 316 309 295 299 303 302 301 302 301 302 297 298 286 275 274 265 258
238 217 233 255 271 289 273 267 275 289 295 296 296 294 293 296 299 300 303 306 308 311 311 310 309 308 307 311 309 307 306 304 301 301 303 306 304 291 293 295 281 273 265 257
220 212 227 251 250 247 271 282 279 288 296 298 301 307 308 303 300 304 304 303 305 307 308 309 307 305 305 308 308 308 305 299 296 302 304 303 301 295 294 300 315 311 300 297
Height
1521 1526 1529 1527 1526 1526 1526 1526 1528 1523 1518 1519 1517 1515 1512 1510 1509 1508 1507 1507 1506 1506 1506 1506 1506 1506 1506 1506 1506 1506 1507 1507 1508 1508 1509 1510 1510 1511 1512 1514 1515 1516 1517 1518
1527 1530 1526 1524 1524 1525 1525 1527 1527 1523 1518 1518 1516 1513 1511 1508 1507 1506 1506 1505 1504 1504 1503 1503 1503 1503 1503 1503 1504 1504 1504 1505 1505 1506 1507 1508 1508 1509 1510 1511 1512 1513 1514 1515
1529 1528 1524 1524 1525 1526 1526 1527 1526 1525 1521 1518 1517 1514 1511 1507 1506 1505 1505 1504 1503 1503 1502 1501 1501 1501 1501 1501 1501 1502 1502 1503 1503 1504 1505 1505 1506 1506 1507 1507 1509 1510 1511 1512
1529 1526 1525 1525 1526 1526 1527 1524 1523 1523 1526 1528 1522 1526 1513 1509 1508 1506 1505 1504 1503 1502 1501 1501 1500 1499 1499 1500 1500 1500 1500 1501 1501 1501 1502 1502 1502 1503 1503 1505 1506 1507 1508 1509
1529 1527 1526 1527 1526 1526 1525 1522 1522 1521 1524 1528 1524 1527 1516 1511 1510 1508 1506 1505 1503 1502 1501 1500 1499 1499 1499 1499 1499 1498 1499 1499 1499 1499 1499 1500 1500 1501 1502 1502 1503 1504 1505 1506
1529 1527 1526 1526 1525 1525 1524 1523 1522 1525 1528 1530 1522 1526 1518 1514 1509 1508 1506 1505 1504 1503 1501 1500 1499 1498 1497 1497 1497 1496 1496 1496 1497 1497 1497 1497 1497 1498 1498 1499 1499 1500 1501 1503
1532 1529 1527 1526 1526 1526 1527 1531 1536 1535 1536 1527 1519 1521 1520 1510 1508 1507 1507 1505 1504 1503 1501 1500 1498 1497 1496 1495 1495 1494 1494 1494 1494 1494 1494 1494 1494 1495 1495 1496 1496 1497 1498 1499
1538 1537 1529 1528 1528 1529 1529 1531 1539 1540 1537 1530 1522 1522 1518 1510 1508 1507 1506 1506 1504 1503 1501 1500 1498 1497 1495 1494 1493 1493 1492 1491 1491 1491 1491 1491 1491 1491 1491 1492 1493 1494 1494 1496
1542 1537 1530 1528 1527 1527 1529 1532 1532 1539 1538 1537 1528 1523 1516 1510 1509 1508 1507 1505 1504 1503 1501 1500 1498 1496 1495 1493 1492 1491 1490 1489 1488 1488 1488 1487 1487 1487 1488 1488 1489 1490 1491 1492
1540 1541 1533 1530 1528 1527 1528 1530 1536 1538 1537 1533 1525 1524 1520 1513 1511 1510 1508 1507 1505 1503 1501 1499 1497 1495 1494 1492 1491 1489 1488 1487 1486 1485 1485 1484 1484 1484 1484 1484 1485 1486 1487 1488
1540 1543 1538 1533 1531 1530 1530 1532 1532 1536 1536 1534 1530 1525 1515 1514 1512 1511 1509 1507 1506 1503 1501 1499 1496 1494 1492 1491 1489 1487 1486 1484 1483 1482 1482 1481 1480 1480 1480 1480 1481 1481 1482 1483
1541 1544 1543 1536 1529 1527 1528 1530 1533 1538 1535 1534 1531 1526 1514 1512 1511 1510 1509 1507 1505 1503 1500 1498 1496 1493 1490 1488 1487 1485 1483 1482 1480 1479 1478 1477 1477 1477 1476 1477 1477 1478 1478 1479
1541 1544 1544 1536 1534 1531 1531 1530 1531 1533 1535 1535 1532 1525 1513 1512 1511 1510 1508 1506 1504 1501 1499 1496 1493 1491 1488 1486 1484 1482 1480 1479 1477 1476 1475 1474 1473 1473 1473 1473 1473 1474 1474 1475
1538 1541 1544 1541 1534 1533 1533 1530 1529 1531 1535 1531 1525 1520 1514 1513 1511 1509 1507 1505 1502 1499 1496 1493 1490 1488 1485 1483 1481 1479 1477 1476 1474 1473 1471 1470 1469 1469 1469 1469 1469 1469 1470 1470
1538 1541 1539 1536 1533 1531 1530 1527 1526 1527 1526 1526 1521 1518 1513 1512 1510 1508 1505 1502 1499 1496 1494 1491 1488 1485 1483 1480 1478 1476 1474 1473 1471 1469 1468 1467 1466 1465 1465 1465 1465 1465 1466 1466
1538 1540 1538 1536 1529 1528 1526 1524 1523 1522 1522 1520 1518 1515 1511 1510 1508 1505 1502 1500 1497 1494 1491 1488 1486 1483 1480 1477 1475 1473 1471 1469 1468 1466 1465 1463 1462 1462 1461 1461 1461 1461 1461 1462
1539 1540 1540 1537 1531 1529 1527 1522 1520 1521 1519 1518 1516 1513 1510 1508 1505 1503 1500 1497 1494 1492 1489 1486 1482 1479 1477 1474 1472 1469 1467 1466 1464 1463 1461 1460 1459 1458 1457 1457 1457 1457 1457 1457
1537 1538 1539 1538 1536 1536 1525 1519 1518 1518 1516 1514 1512 1511 1508 1506 1503 1500 1498 1495 1492 1489 1486 1482 1479 1476 1473 1470 1468 1466 1464 1462 1460 1459 1457 1456 1455 1455 1454 1453 1453 1453 1453 1453
1532 1536 1539 1539 1539 1530 1522 1518 1517 1517 1515 1512 1510 1508 1506 1503 1499 1496 1495 1493 1490 1486 1483 1479 1476 1472 1469 1466 1463 1461 1459 1458 1456 1455 1454 1453 1452 1451 1450 1449 1449 1449 1449 1449
1531 1533 1538 1538 1536 1530 1520 1516 1513 1515 1514 1510 1508 1506 1504 1501 1499 1493 1491 1489 1485 1482 1479 1475 1471 1468 1464 1462 1459 1457 1455 1454 1452 1451 1450 1449 1448 1447 1447 1446 1446 1445 1445 1445
1534 1536 1537 1537 1535 1525 1517 1514 1514 1519 1514 1508 1506 1504 1502 1500 1498 1493 1488 1485 1482 1478 1474 1471 1467 1463 1460 1458 1455 1453 1451 1450 1449 1448 1447 1445 1444 1444 1443 1443 1443 1442 1441 1441
1531 1534 1535 1534 1534 1525 1513 1513 1514 1512 1508 1506 1504 1501 1499 1496 1492 1489 1485 1481 1478 1474 1470 1467 1463 1459 1456 1454 1452 1449 1447 1446 1445 1444 1443 1442 1441 1440 1440 1439 1439 1439 1438 1437
1526 1525 1524 1524 1520 1512 1510 1510 1509 1508 1505 1503 1501 1498 1496 1492 1488 1485 1481 1477 1473 1470 1466 1463 1460 1456 1453 1450 1448 1446 1444 1443 1441 1440 1439 1438 1437 1437 1436 1436 1435 1435 1434 1434
1520 1518 1519 1518 1512 1509 1508 1507 1506 1505 1502 1500 1497 1495 1492 1488 1484 1481 1477 1473 1470 1466 1462 1459 1456 1452 1449 1447 1445 1443 1441 1439 1438 1436 1435 1434 1433 1433 1432 1432 1431 1431 1430 1430
1516 1516 1515 1513 1509 1507 1504 1504 1502 1500 1498 1496 1493 1491 1488 1484 1481 1477 1473 1470 1466 1462 1459 1456 1453 1449 1446 1444 1441 1440 1438 1436 1434 1433 1431 1430 1429 1429 1428 1428 1428 1427 1427 1427
1511 1512 1512 1509 1505 1505 1502 1500 1499 1497 1494 1492 1489 1486 1483 1481 1477 1473 1470 1466 1462 1459 1455 1452 1449 1446 1443 1440 1438 1436 1434 1433 1431 1429 1428 1427 1426 1425 1425 1424 1424 1424 1424 1424